STARLINK-1277 (45369 NORAD) Tracking and Keplerian Element Data

This shows tracking and keplerian element data for the satellite.

Feedback or suggestion? Click here.




ElementValue
Catalog45369
NameSTARLINK-1277
Epoch Orbit1868
Epoch Day196.91667824
Epoch Year2020
RAAN71.2539
Inclination53.0011
Eccentricity0.0001682
Argument of Perigee91.2378
Mean Anonmoly210.0341
Mean Motion15.05593759
Decay Rate-0.00017286
L11 45369U 20019K 20196.91667824 -.00017286 00000-0 -11696-2 0 9991
L22 45369 53.0011 71.2539 0001682 91.2378 210.0341 15.05593759 18686

Live tracking and technical data element details for STARLINK-1277 (NORAD 45369). STARLINK-1277 can be tracked NOW for your location showing map with azimuth and elevation plus other details from your city location.

Track the satellite on the map from your city or location and see movement details for azimuth, elevation, latitude, longitude, range, height, and movement on the map or in text.







IsCatalogInMostPopularTable: catalog: 45369, numindb: 23
Update: records affected: 1



GetName: 45369 STARLINK-1277

Hit Count: updated at: Thu, 16 Jul 2020 04:19:14 GMT